This demonstration page uses our WeatherBlox Daily Observations layout. Learn more.

Left ArrowRight Arrow

Hourly Observations for May 26, 2018

Temp ( °F °C ) Dew Point ( °F °C ) Humidity (%) Winds ( mph kmh ) Pressure ( in mb ) Visibility ( mi km ) Precip ( " mm )
12:15 am 00:15 Clear 72 22.1 59 15 64 64 SSW 7 11 29.71 1006 10 16 N/A
12:35 am 00:35 Clear 71 21.8 58 14.7 64 64 SSW 7 11 29.71 1006 10 16 N/A
12:55 am 00:55 Clear 71 21.5 58 14.7 65 65 SSW 6 9 29.71 1006 10 16 N/A
1:15 am 01:15 Clear 71 21.5 58 14.5 65 65 SW 7 11 29.71 1006 10 16 N/A
1:35 am 01:35 Clear 70 21.2 58 14.5 66 66 WSW 6 9 29.74 1007 10 16 N/A
1:55 am 01:55 Clear 73 23 58 14.7 60 60 WSW 7 11 29.71 1006 10 16 N/A
2:15 am 02:15 Clear 73 23 59 15 61 61 WSW 8 13 29.71 1006 10 16 N/A
2:35 am 02:35 Clear 72 22.2 59 14.8 63 63 WSW 8 13 29.71 1006 10 16 N/A
2:55 am 02:55 Clear 72 22 59 14.9 64 64 W 10 17 29.71 1006 10 16 N/A
3:15 am 03:15 Clear 72 22 59 15 65 65 WSW 9 15 29.71 1006 10 16 N/A
3:35 am 03:35 Clear 70 21 58 14.7 67 67 W 8 13 29.74 1007 10 16 N/A
3:55 am 03:55 Clear 68 20.1 58 14.7 71 71 W 8 13 29.74 1007 10 16 N/A
4:15 am 04:15 Clear 68 20.2 58 14.7 71 71 W 9 15 29.74 1007 10 16 N/A
4:35 am 04:35 Clear 67 19.7 58 14.6 73 73 W 7 11 29.74 1007 10 16 N/A
4:55 am 04:55 Clear 67 19.2 58 14.3 73 73 N N/A 29.74 1007 10 16 N/A
5:15 am 05:15 Clear 63 17.2 57 14.1 82 82 NW 3 6 29.77 1008 10 16 N/A
5:35 am 05:35 Clear 63 17.2 57 14.1 82 82 N N/A 29.77 1008 10 16 N/A
5:55 am 05:55 Clear 63 17.3 58 14.2 82 82 N N/A 29.77 1008 10 16 N/A
6:15 am 06:15 Sunny 63 17.2 57 14 82 82 N N/A 29.77 1008 10 16 N/A
6:35 am 06:35 Sunny 64 17.6 57 14.1 80 80 N N/A 29.77 1008 10 16 N/A
6:55 am 06:55 Sunny 66 18.9 59 15.1 79 79 W 6 9 29.77 1008 10 16 N/A
7:15 am 07:15 Sunny 69 20.3 60 15.6 75 75 WNW 6 9 29.77 1008 10 16 N/A
7:35 am 07:35 Sunny 71 21.7 60 15.7 69 69 WNW 5 7 29.74 1007 10 16 N/A
7:55 am 07:55 Sunny 72 22 61 16.1 69 69 NW 5 7 29.74 1007 10 16 N/A
8:15 am 08:15 Sunny 74 23.3 62 16.5 66 66 WNW 5 7 29.74 1007 10 16 N/A
8:35 am 08:35 Sunny 76 24.6 63 17 63 63 W 7 11 29.77 1008 10 16 N/A
8:55 am 08:55 Sunny 78 25.8 64 18 62 62 W 14 22 29.74 1007 10 16 N/A
9:15 am 09:15 Sunny 80 26.6 65 18.4 61 61 W 10 17 29.74 1007 10 16 N/A
9:35 am 09:35 Sunny 81 27.3 67 19.2 61 61 W 9 15 29.74 1007 10 16 N/A
9:55 am 09:55 Sunny 82 27.9 66 19 58 58 W 8 13 29.74 1007 10 16 N/A
10:15 am 10:15 Sunny 83 28.6 66 19.1 56 56 W 7 11 29.74 1007 10 16 N/A
10:35 am 10:35 Sunny 84 29 64 17.9 51 51 WNW 5 7 29.68 1005 10 16 N/A
10:55 am 10:55 Sunny 86 30 63 17.1 46 46 WSW 6 9 29.68 1005 10 16 N/A
11:15 am 11:15 Sunny 87 30.5 62 16.9 44 44 WSW 7 11 29.68 1005 10 16 N/A
11:35 am 11:35 Sunny 88 31.2 60 15.4 38 38 SSW 7 11 29.68 1005 10 16 N/A
11:55 am 11:55 Sunny 88 31.3 60 15.5 38 38 WSW 6 9 29.68 1005 10 16 N/A
12:15 pm 12:15 Sunny 89 31.9 60 15.6 37 37 SW 8 13 29.68 1005 10 16 N/A
12:35 pm 12:35 Sunny 90 32 60 15.3 36 36 SW 9 15 29.68 1005 10 16 N/A
12:55 pm 12:55 Sunny 91 32.7 61 16.1 37 37 SSW 8 13 29.68 1005 10 16 N/A
1:15 pm 13:15 Sunny 90 32.4 62 16.5 38 38 SW 7 11 29.65 1004 10 16 N/A
1:35 pm 13:35 Sunny 92 33.4 62 16.7 37 37 SSW 10 17 29.62 1003 10 16 N/A
1:55 pm 13:55 Sunny 93 33.8 58 14.7 32 32 S 12 19 29.62 1003 10 16 N/A
2:15 pm 14:15 Sunny 93 33.7 60 15.6 34 34 S 9 15 29.62 1003 10 16 N/A
2:35 pm 14:35 Sunny 93 34 60 15.5 33 33 SSW 13 20 29.62 1003 10 16 N/A
2:55 pm 14:55 Sunny 94 34.2 59 14.8 31 31 S 12 19 29.62 1003 10 16 N/A
3:15 pm 15:15 Sunny 93 34 60 15.3 32 32 S 9 15 29.62 1003 10 16 N/A
3:35 pm 15:35 Sunny 93 34.1 60 15.8 33 33 SSW 9 15 29.59 1002 10 16 N/A
3:55 pm 15:55 Sunny 94 34.3 59 15.1 32 32 SSW 14 22 29.59 1002 10 16 N/A
4:15 pm 16:15 Sunny 94 34.4 58 14.5 30 30 S 8 13 29.59 1002 10 16 N/A
4:35 pm 16:35 Sunny 94 34.5 56 13.4 28 28 SSW 10 17 29.59 1002 10 16 N/A
4:55 pm 16:55 Sunny 94 34.5 55 12.7 27 27 S 15 24 29.59 1002 10 16 N/A
5:35 pm 17:35 Sunny 94 34.5 54 12.3 26 26 S 14 22 29.59 1002 10 16 N/A
5:55 pm 17:55 Sunny 94 34.2 56 13.5 29 29 S 12 19 29.59 1002 10 16 N/A
6:15 pm 18:15 Sunny 93 33.7 56 13.3 29 29 S 13 20 29.59 1002 10 16 N/A
6:35 pm 18:35 Sunny 93 34.1 54 12.2 26 26 S 13 20 29.59 1002 10 16 N/A
6:55 pm 18:55 Sunny 93 33.7 54 12.4 27 27 S 13 20 29.59 1002 10 16 N/A
7:15 pm 19:15 Sunny 92 33.1 55 12.6 29 29 S 13 20 29.59 1002 10 16 N/A
7:35 pm 19:35 Sunny 91 32.7 55 12.7 30 30 S 13 20 29.59 1002 10 16 N/A
7:55 pm 19:55 Sunny 89 31.8 56 13.2 32 32 S 12 19 29.62 1003 10 16 N/A
8:15 pm 20:15 Sunny 88 31 56 13.4 34 34 S 9 15 29.62 1003 10 16 N/A
8:35 pm 20:35 Sunny 85 29.6 56 13.5 37 37 SSE 8 13 29.62 1003 10 16 N/A
8:55 pm 20:55 Sunny 82 27.7 56 13.6 42 42 SSE 9 15 29.65 1004 10 16 N/A
9:15 pm 21:15 Clear 81 27 57 14 45 45 SSE 9 15 29.65 1004 10 16 N/A
9:35 pm 21:35 Clear 78 25.8 58 14.7 50 50 SSE 9 15 29.65 1004 10 16 N/A
9:55 pm 21:55 Clear 80 26.7 59 15.1 49 49 SSE 12 19 29.65 1004 10 16 N/A
10:15 pm 22:15 Clear 80 26.5 59 15.2 50 50 SSE 12 19 29.68 1005 10 16 N/A
10:35 pm 22:35 Clear 79 25.9 59 15 51 51 S 10 17 29.68 1005 10 16 N/A
10:55 pm 22:55 Clear 77 25.1 59 15.1 54 54 S 9 15 29.68 1005 10 16 N/A
11:15 pm 23:15 Clear 76 24.6 59 15 55 55 S 9 15 29.71 1006 10 16 N/A
11:35 pm 23:35 Clear 75 24.1 59 15 57 57 SSE 10 17 29.71 1006 10 16 N/A
11:55 pm 23:55 Clear 74 23.2 59 14.8 59 59 S 7 11 29.71 1006 10 16 N/A

Powered by AerisWeather